Find STARLINK-37525

NORAD ID: 799500913 Int'l Des: 2026-127V Constellation: starlink operational

現在のビュー

3D地球を読み込み中...

STARLINK-37525について

説明を読み込み中...

次回通過

Passes for default location (London). Set your location on the main map for personalized predictions.

高度履歴

Loading altitude history...

軌道要素

1 99999C 2026127V 26159.93034721 .00933740 00000-0 926790-4 0 1598
2 99999 53.1614 304.8006 0008862 292.0472 127.6291 16.09946895 14
Epoch: Jun 8, 2026 • Age: 4 hours